TimePST,TemperatureF,Dew PointF,Humidity,Sea Level PressureIn,VisibilityMPH,Wind Direction,Wind SpeedMPH,Gust SpeedMPH,PrecipitationIn,Events,Conditions,WindDirDegrees,DateUTC
12:42 AM,42.8,41.0,93,30.11,0.2,North,-9999.0,-,N/A,Fog,Fog,0,2012-12-06 08:42:00
12:56 AM,41.0,41.0,100,30.01,0.2,North,-9999.0,-,N/A,Fog,Fog,0,2012-12-06 08:56:00
1:35 AM,39.2,37.4,93,30.10,0.5,North,-9999.0,-,N/A,Fog,Fog,0,2012-12-06 09:35:00
1:45 AM,39.2,37.4,93,30.10,0.2,North,-9999.0,-,N/A,Fog,Fog,0,2012-12-06 09:45:00
1:56 AM,37.9,37.9,100,30.01,0.2,North,-9999.0,-,N/A,Fog,Fog,0,2012-12-06 09:56:00
2:19 AM,39.2,37.4,93,30.10,0.2,North,-9999.0,-,N/A,Fog,Fog,0,2012-12-06 10:19:00
2:39 AM,39.2,39.2,100,30.10,0.5,North,-9999.0,-,N/A,Fog,Fog,0,2012-12-06 10:39:00
2:56 AM,41.0,41.0,100,30.00,0.5,North,-9999.0,-,N/A,Fog,Fog,0,2012-12-06 10:56:00
3:06 AM,41.0,39.2,93,30.09,0.2,North,-9999.0,-,N/A,Fog,Fog,0,2012-12-06 11:06:00
3:30 AM,39.2,39.2,100,30.09,0.2,North,-9999.0,-,N/A,Fog,Fog,0,2012-12-06 11:30:00
3:56 AM,39.9,39.9,100,29.99,0.2,North,-9999.0,-,N/A,Fog,Fog,0,2012-12-06 11:56:00
4:56 AM,39.9,39.9,100,29.99,0.2,North,-9999.0,-,0.01,Fog,Fog,0,2012-12-06 12:56:00
5:51 AM,41.0,41.0,100,30.09,0.5,Calm,Calm,-,N/A,Fog,Fog,0,2012-12-06 13:51:00
5:56 AM,41.0,41.0,100,30.00,0.2,Calm,Calm,-,N/A,Fog,Fog,0,2012-12-06 13:56:00
6:17 AM,41.0,41.0,100,30.10,0.2,WNW,3.5,-,N/A,Fog,Fog,300,2012-12-06 14:17:00
6:56 AM,41.0,41.0,100,30.00,0.2,Calm,Calm,-,N/A,Fog,Fog,0,2012-12-06 14:56:00
7:44 AM,41.0,41.0,100,30.10,0.1,SW,3.5,-,N/A,Fog,Fog,230,2012-12-06 15:44:00
7:56 AM,41.0,41.0,100,30.01,0.1,Calm,Calm,-,N/A,Fog,Fog,0,2012-12-06 15:56:00
8:20 AM,42.8,42.8,100,30.11,0.5,Calm,Calm,-,N/A,Fog,Fog,0,2012-12-06 16:20:00
8:32 AM,41.0,41.0,100,30.11,0.1,Calm,Calm,-,N/A,Fog,Fog,0,2012-12-06 16:32:00
8:56 AM,42.1,41.0,96,30.01,0.1,Calm,Calm,-,N/A,Fog,Fog,0,2012-12-06 16:56:00
9:38 AM,42.8,42.8,100,30.12,0.1,Calm,Calm,-,N/A,Fog,Light Drizzle,0,2012-12-06 17:38:00
9:50 AM,42.8,42.8,100,30.13,0.8,SSW,4.6,-,N/A,,Light Drizzle,210,2012-12-06 17:50:00
9:56 AM,43.0,43.0,100,30.03,0.8,South,4.6,-,N/A,,Overcast,170,2012-12-06 17:56:00
10:02 AM,42.8,42.8,100,30.13,1.2,SSW,4.6,-,N/A,,Overcast,200,2012-12-06 18:02:00
10:17 AM,42.8,42.8,100,30.12,1.2,SSW,6.9,-,N/A,,Overcast,200,2012-12-06 18:17:00
10:56 AM,44.1,43.0,96,30.01,1.8,WSW,3.5,-,N/A,,Overcast,250,2012-12-06 18:56:00
11:03 AM,44.6,44.6,100,30.11,6.0,WSW,4.6,-,N/A,,Overcast,250,2012-12-06 19:03:00
11:33 AM,44.6,42.8,93,30.09,6.0,Calm,Calm,-,N/A,,Overcast,0,2012-12-06 19:33:00
11:56 AM,46.0,43.0,89,29.99,10.0,Calm,Calm,-,N/A,,Overcast,0,2012-12-06 19:56:00
12:56 PM,48.0,43.0,83,29.97,10.0,Variable,3.5,-,N/A,,Mostly Cloudy,0,2012-12-06 20:56:00
1:30 PM,48.2,44.6,87,30.05,10.0,North,-9999.0,-,N/A,,Unknown,0,2012-12-06 21:30:00
1:56 PM,47.8,43.7,86,29.96,10.0,Variable,3.5,-,N/A,,Mostly Cloudy,0,2012-12-06 21:56:00
2:05 PM,48.6,-9999,N/A,29.96,10.0,Variable,3.5,-,N/A,,Mostly Cloudy,0,2012-12-06 22:05:00
2:56 PM,49.1,45.5,87,29.96,10.0,Variable,3.5,-,N/A,,Mostly Cloudy,0,2012-12-06 22:56:00
3:56 PM,49.1,45.3,87,29.94,10.0,Variable,3.5,-,N/A,,Mostly Cloudy,0,2012-12-06 23:56:00
4:56 PM,46.2,46.0,99,29.94,10.0,Variable,3.5,-,N/A,,Mostly Cloudy,0,2012-12-07 00:56:00
5:56 PM,42.6,42.4,99,29.96,10.0,Variable,4.6,-,N/A,,Scattered Clouds,0,2012-12-07 01:56:00
6:45 PM,41.0,41.0,100,30.06,1.0,Variable,3.5,-,N/A,,Scattered Clouds,0,2012-12-07 02:45:00
6:56 PM,39.0,38.8,99,29.97,0.5,Variable,3.5,-,N/A,Fog,Fog,0,2012-12-07 02:56:00
7:09 PM,37.4,37.4,100,30.06,0.2,Variable,3.5,-,N/A,Fog,Fog,0,2012-12-07 03:09:00
7:17 PM,37.4,37.4,100,30.06,0.1,Variable,3.5,-,N/A,Fog,Fog,0,2012-12-07 03:17:00
7:43 PM,37.4,37.4,100,30.08,0.1,Calm,Calm,-,N/A,Fog,Fog,0,2012-12-07 03:43:00
7:56 PM,36.0,36.0,100,30.01,0.1,Calm,Calm,-,N/A,Fog,Fog,0,2012-12-07 03:56:00
8:49 PM,35.6,35.6,100,30.11,0.1,Variable,3.5,-,N/A,Fog,Fog,0,2012-12-07 04:49:00
8:56 PM,35.8,35.8,100,30.01,0.1,Variable,3.5,-,N/A,Fog,Fog,0,2012-12-07 04:56:00
9:56 PM,35.6,35.6,100,30.01,0.1,Calm,Calm,-,N/A,Fog,Fog,0,2012-12-07 05:56:00
10:56 PM,35.6,35.6,100,30.01,0.1,Calm,Calm,-,N/A,Fog,Fog,0,2012-12-07 06:56:00
11:03 PM,-9999,-9999,N/A,-9999,-9999.0,North,-9999.0,-,N/A,Fog,Fog,0,2012-12-07 07:03:00
11:56 PM,-9999,-9999,N/A,-9999,-9999.0,North,-9999.0,-,N/A,Fog,Fog,0,2012-12-07 07:56:00